This is the latest recevied weather packets stored in our database for station/object SP8NFE-1. If no packets are shown the sender has not sent any weather packets the latest 10 day(s).
| Time | Temp. | Humidity | Pressure | Rain* | Wind** | Luminosity | Snow |
|---|---|---|---|---|---|---|---|
| 1777625427 | 11.11° C | 45% | 0 hPa | 0 mm | - | - | - |
| 1777623627 | 10.56° C | 45% | 0 hPa | 0 mm | - | - | - |
| 1777623327 | 10° C | 45% | 0 hPa | 0 mm | - | - | - |
| 1777623049 | 10° C | 44% | 0 hPa | 0 mm | - | - | - |
| 1777622727 | 9.44° C | 43% | 0 hPa | 0 mm | - | - | - |
| 1777622429 | 9.44° C | 45% | 0 hPa | 0 mm | - | - | - |
| 1777622127 | 9.44° C | 44% | 0 hPa | 0 mm | - | - | - |
| 1777621828 | 9.44° C | 44% | 0 hPa | 0 mm | - | - | - |
| 1777621527 | 9.44° C | 46% | 0 hPa | 0 mm | - | - | - |
| 1777621228 | 9.44° C | 50% | 0 hPa | 0 mm | - | - | - |
| 1777620927 | 9.44° C | 48% | 0 hPa | 0 mm | - | - | - |
| 1777620628 | 8.89° C | 53% | 0 hPa | 0 mm | - | - | - |
| 1777620328 | 8.89° C | 53% | 0 hPa | 0 mm | - | - | - |
| 1777620040 | 8.33° C | 55% | 0 hPa | 0 mm | - | - | - |
| 1777619428 | 8.33° C | 53% | 0 hPa | 0 mm | - | - | - |
| 1777619134 | 8.33° C | 55% | 0 hPa | 0 mm | - | - | - |
| 1777617928 | 7.22° C | 57% | 0 hPa | 0 mm | - | - | - |
| 1777617639 | 6.67° C | 58% | 0 hPa | 0 mm | - | - | - |
| 1777617328 | 6.67° C | 57% | 0 hPa | 0 mm | - | - | - |
| 1777617028 | 6.11° C | 61% | 0 hPa | 0 mm | - | - | - |
| 1777616728 | 6.11° C | 61% | 0 hPa | 0 mm | - | - | - |
| 1777616428 | 6.11° C | 61% | 0 hPa | 0 mm | - | - | - |
| 1777616128 | 5.56° C | 64% | 0 hPa | 0 mm | - | - | - |
| 1777615828 | 5° C | 68% | 0 hPa | 0 mm | - | - | - |
| 1777615528 | 5° C | 71% | 0 hPa | 0 mm | - | - | - |
* Rain latest hour (hover to see other rain measurements)
** Current wind speed in m/s (hover to see current wind gust speed)